Location: Coche
(10.4506°N, 66.9257°W)
Time: 18:50:09
(UTC+00:00)

Tiangong - Visible Passes

Search period start: 09 December 2022 00:00
Search period end: 19 December 2022 00:00
Orbit: 386 x 392 km, 41.5° (Epoch: 09 December)

Date Brightness Start Highest point End Pass type
(mag) Time Alt. Az. Time Alt. Az. Time Alt. Az.
13 Dec -0.2 23:38:51 10° NW 23:40:14 24° NW 23:40:14 24° NW visible
14 Dec -1.2 22:40:46 10° NNW 22:43:34 28° NE 22:46:23 10° ESE visible
15 Dec 1.5 00:18:44 10° WSW 00:19:04 11° WSW 00:19:04 11° WSW visible
15 Dec -0.2 23:19:01 10° WNW 23:21:52 31° SW 23:24:43 10° SSE visible
17 Dec 1.4 23:00:24 10° WSW 23:01:31 11° SW 23:02:38 10° SSW visible
